Location: Ferchesar
(52.6477°N, 12.4298°E)
Time: 21:53:04
(UTC+02:00)

A-11 Canister half - Pass Details

Date: 11 March 2021
Orbit: 1525 x 1683 km, 47.3° (Epoch: 11 April)

Event Time Altitude Azimuth Distance (km) Brightness Sun altitude
Exits shadow 05:09:57 17° 256° (WSW) 3,294 10.1 -13.5°
Maximum altitude 05:17:45 65° 180° (S) 1,699 9.2 -12.3°
Drops below altitude 10° 05:26:58 10° 101° (ESE) 3,712 12.3 -11.0°
Sets 05:30:01 0° 99° (E) 4,684 13.2 -10.5°
